This demonstration page uses our WeatherBlox Daily Observations layout. Learn more.

Left ArrowRight Arrow

Hourly Observations for August 12, 2021

Temp ( °F °C ) Dew Point ( °F °C ) Humidity (%) Winds ( mph kmh ) Pressure ( in mb ) Visibility ( mi km ) Precip ( " mm )
12:56 am 00:56 Clear 66 18.9 64 17.8 93 93 E 3 6 29.87 1012 10 16 0.00 0.00
1:56 am 01:56 Clear 67 19.4 64 17.8 91 91 Calm 29.86 1011 10 16 0.00 0.00
2:56 am 02:56 Clear 65 18.3 63 17.2 93 93 Calm 29.85 1011 10 16 0.00 0.00
3:56 am 03:56 Clear 65 18.3 62 16.7 90 90 NE 5 7 29.85 1011 10 16 0.00 0.00
4:56 am 04:56 Clear 65 18.3 62 16.7 90 90 NE 3 6 29.85 1011 10 16 0.00 0.00
5:56 am 05:56 Clear 66 18.9 62 16.7 87 87 NW 5 7 29.85 1011 10 16 0.00 0.00
6:56 am 06:56 Sunny 64 17.8 60 15.6 87 87 NW 5 7 29.86 1011 10 16 0.00 0.00
7:56 am 07:56 Sunny 65 18.3 62 16.7 90 90 NW 7 11 29.89 1012 10 16 0.00 0.00
8:56 am 08:56 Sunny 70 21.1 66 18.9 87 87 NNW 8 13 29.92 1013 10 16 0.00 0.00
9:56 am 09:56 Sunny 74 23.3 68 20 82 82 NNW 8 13 29.93 1014 10 16 0.00 0.00
10:56 am 10:56 Sunny 79 26.1 70 21.1 74 74 NNW 3 6 29.95 1014 10 16 0.00 0.00
11:56 am 11:56 Sunny 83 28.3 71 21.7 67 67 NNW 7 11 29.97 1015 10 16 0.00 0.00
12:56 pm 12:56 Sunny 87 30.6 70 21.1 57 57 NNE 6 9 29.97 1015 10 16 0.00 0.00
1:56 pm 13:56 Sunny 88 31.1 67 19.4 50 50 NE 16 26 29.97 1015 10 16 0.00 0.00
2:56 pm 14:56 Sunny 89 31.7 64 17.8 43 43 NNE 23 37 29.96 1015 10 16 0.00 0.00
3:56 pm 15:56 Sunny 87 30.6 62 16.7 43 43 NE 21 33 29.98 1015 10 16 0.00 0.00
4:56 pm 16:56 Sunny 86 30 62 16.7 45 45 NE 23 37 29.98 1015 10 16 0.00 0.00
5:56 pm 17:56 Sunny 84 28.9 60 15.6 44 44 NE 18 30 29.98 1015 10 16 0.00 0.00
6:56 pm 18:56 Sunny 80 26.7 56 13.3 44 44 NE 17 28 30.00 1016 10 16 0.00 0.00
7:56 pm 19:56 Sunny 77 25 56 13.3 48 48 NE 14 22 30.03 1017 10 16 0.00 0.00
8:56 pm 20:56 Partly Cloudy 74 23.3 55 12.8 52 52 NE 9 15 30.06 1018 10 16 0.00 0.00
9:56 pm 21:56 Mostly Clear 72 22.2 54 12.2 53 53 NE 6 9 30.06 1018 10 16 0.00 0.00
10:56 pm 22:56 Mostly Cloudy 68 20 58 14.4 70 70 NNE 8 13 30.09 1019 10 16 0.00 0.00
11:56 pm 23:56 Mostly Clear 68 20 54 12.2 61 61 NNE 12 19 30.06 1018 10 16 0.00 0.00

Powered by AerisWeather